Fairacres, NM

5:25 PM MST on February 07, 2016 (GMT -0700)
Las Cruces International

Weather History for KLRU - February, 2014

Change the Weather History Date:

Friday, February 28, 2014

  Actual Average Record
Temperature  
Mean Temperature 59 °F -  
Max Temperature 73 °F 56 °F 73 °F (2014)
Min Temperature 45 °F 34 °F 26 °F (2015)
Degree Days  
Heating Degree Days 6    
Growing Degree Days 9 (Base 50)    
Moisture  
Dew Point 29 °F    
Average Humidity 33    
Maximum Humidity 60    
Minimum Humidity 16    
Precipitation  
Precipitation 0.00 in - - ()
Sea Level Pressure  
Sea Level Pressure 29.95 in    
Wind  
Wind Speed 14 mph (West)    
Max Wind Speed 30 mph    
Max Gust Speed 38 mph    
Visibility 10 miles    
Events      
Averages and records for this station are not official NWS values.
T = Trace of Precipitation, MM = Missing Value Source: NWS Daily Summary

Daily Weather History Graph

Daily Weather History Graph

Search for Another Location

Airport or City:

Trip Planner

Search our weather history database for the weather conditions in past years. The results will help you decide how hot, cold, wet, or windy it might be!

Date:

Astronomy

Feb. 28, 2014 Rise Set
Actual Time 6:36 AM MST 6:04 PM MST
Civil Twilight 6:11 AM MST 6:29 PM MST
Nautical Twilight 5:43 AM MST 6:57 PM MST
Astronomical Twilight 5:14 AM MST 7:26 PM MST
Moon 5:52 AM MST (2/28) 5:43 PM MST (2/28)
Length of Visible Light 12h 17m
Length of Day
11h 28m
Waning Crescent, 0% of the Moon is Illuminated
Feb 28
Waning Crescent
Mar 1
New
Mar 8
First Quarter
Mar 16
Full
Mar 23
Last Quarter

Hourly Weather History & Observations

Time (MST) Temp. Windchill Dew Point Humidity Pressure Visibility Wind Dir Wind Speed Gust Speed Precip Events Conditions
12:15 AM 57.0 °F - 31.3 °F 38% 29.87 in 10.0 mi West 23.0 mph 29.9 mph N/A   Clear
12:35 AM 58.1 °F - 31.1 °F 36% 29.88 in 10.0 mi West 29.9 mph 38.0 mph N/A   Clear
12:55 AM 57.9 °F - 31.5 °F 37% 29.88 in 10.0 mi West 26.5 mph 38.0 mph N/A   Clear
1:15 AM 57.2 °F - 32.0 °F 38% 29.89 in 10.0 mi West 19.6 mph 31.1 mph N/A   Clear
1:35 AM 56.8 °F - 32.0 °F 39% 29.90 in 10.0 mi WNW 18.4 mph 24.2 mph N/A   Clear
1:55 AM 57.2 °F - 32.0 °F 38% 29.90 in 10.0 mi WNW 18.4 mph 24.2 mph N/A   Clear
2:15 AM 57.0 °F - 32.2 °F 39% 29.90 in 10.0 mi West 18.4 mph 25.3 mph N/A   Clear
2:35 AM 55.8 °F - 32.4 °F 41% 29.90 in 10.0 mi WNW 9.2 mph 20.7 mph N/A   Clear
2:55 AM 54.0 °F - 32.2 °F 44% 29.92 in 10.0 mi NW 5.8 mph - N/A   Clear
3:15 AM 53.1 °F - 32.4 °F 45% 29.92 in 10.0 mi NW 8.1 mph - N/A   Clear
3:35 AM 53.2 °F - 32.2 °F 45% 29.92 in 10.0 mi NW 9.2 mph - N/A   Clear
3:55 AM 54.5 °F - 32.2 °F 43% 29.93 in 10.0 mi WNW 9.2 mph - N/A   Clear
4:15 AM 53.6 °F - 32.0 °F 44% 29.93 in 10.0 mi NW 6.9 mph - N/A   Clear
4:35 AM 48.2 °F - 31.3 °F 52% 29.95 in 10.0 mi SE 6.9 mph - N/A   Clear
4:55 AM 51.4 °F - 32.0 °F 47% 29.95 in 10.0 mi Calm Calm - N/A   Clear
5:15 AM 52.9 °F - 32.0 °F 45% 29.95 in 10.0 mi WNW 9.2 mph - N/A   Clear
5:35 AM 52.0 °F - 32.0 °F 47% 29.94 in 10.0 mi WNW 8.1 mph - N/A   Clear
5:55 AM 49.1 °F - 31.3 °F 50% 29.95 in 10.0 mi SE 6.9 mph - N/A   Clear
6:15 AM 45.7 °F 43.4 °F 31.8 °F 58% 29.96 in 10.0 mi South 4.6 mph - N/A   Clear
6:35 AM 45.1 °F 39.9 °F 31.8 °F 60% 29.97 in 10.0 mi WSW 10.4 mph - N/A   Clear
6:55 AM 48.2 °F - 32.0 °F 54% 29.98 in 10.0 mi WSW 9.2 mph - N/A   Clear
7:15 AM 48.7 °F - 32.2 °F 53% 29.99 in 10.0 mi SW 5.8 mph - N/A   Clear
7:35 AM 50.9 °F - 32.7 °F 50% 29.99 in 10.0 mi WSW 4.6 mph - N/A   Clear
7:55 AM 52.9 °F - 33.3 °F 47% 30.00 in 10.0 mi WSW 10.4 mph - N/A   Clear
8:15 AM 54.1 °F - 33.3 °F 45% 30.01 in 10.0 mi WSW 10.4 mph - N/A   Clear
8:35 AM 54.5 °F - 33.4 °F 45% 30.02 in 10.0 mi WSW 8.1 mph - N/A   Clear
8:55 AM 56.7 °F - 32.9 °F 41% 30.02 in 10.0 mi WSW 10.4 mph - N/A   Clear
9:15 AM 57.9 °F - 32.7 °F 39% 30.03 in 10.0 mi West 6.9 mph - N/A   Clear
9:35 AM 59.5 °F - 32.0 °F 35% 30.02 in 10.0 mi West 6.9 mph - N/A   Clear
9:55 AM 60.3 °F - 32.0 °F 34% 30.01 in 10.0 mi WSW 8.1 mph - N/A   Clear
10:15 AM 62.2 °F - 31.6 °F 32% 30.01 in 10.0 mi West 6.9 mph - N/A   Clear
10:35 AM 64.6 °F - 30.9 °F 28% 30.00 in 10.0 mi West 15.0 mph 26.5 mph N/A   Clear
10:55 AM 65.3 °F - 31.1 °F 28% 30.00 in 10.0 mi West 12.7 mph 24.2 mph N/A   Clear
11:15 AM 66.6 °F - 31.1 °F 27% 30.00 in 10.0 mi West 17.3 mph 21.9 mph N/A   Clear
11:35 AM 66.6 °F - 30.7 °F 26% 29.99 in 10.0 mi West 19.6 mph 24.2 mph N/A   Clear
11:55 AM 67.3 °F - 29.5 °F 24% 29.99 in 10.0 mi West 17.3 mph 23.0 mph N/A   Clear
12:15 PM 68.4 °F - 27.7 °F 22% 29.98 in 10.0 mi WSW 15.0 mph 21.9 mph N/A   Clear
12:35 PM 69.1 °F - 25.9 °F 20% 29.97 in 10.0 mi West 16.1 mph 23.0 mph N/A   Clear
12:55 PM 69.1 °F - 27.1 °F 21% 29.96 in 10.0 mi West 18.4 mph 29.9 mph N/A   Clear
1:15 PM 70.2 °F - 26.2 °F 19% 29.95 in 10.0 mi WSW 21.9 mph - N/A   Clear
1:35 PM 70.9 °F - 23.0 °F 17% 29.94 in 10.0 mi West 20.7 mph 28.8 mph N/A   Clear
1:55 PM 71.6 °F - 25.0 °F 17% 29.93 in 10.0 mi WSW 17.3 mph 24.2 mph N/A   Clear
2:15 PM 72.3 °F - 23.7 °F 16% 29.93 in 10.0 mi WSW 17.3 mph 29.9 mph N/A   Clear
2:35 PM 72.7 °F - 23.4 °F 16% 29.92 in 10.0 mi WSW 20.7 mph 29.9 mph N/A   Clear
2:55 PM 73.0 °F - 25.7 °F 17% 29.92 in 10.0 mi West 21.9 mph 26.5 mph N/A   Clear
3:15 PM 73.6 °F - 26.2 °F 17% 29.91 in 10.0 mi West 23.0 mph 29.9 mph N/A   Clear
3:35 PM 73.0 °F - 26.4 °F 18% 29.91 in 10.0 mi West 17.3 mph 26.5 mph N/A   Clear
3:55 PM 73.2 °F - 27.1 °F 18% 29.90 in 10.0 mi WSW 11.5 mph 20.7 mph N/A   Clear
4:15 PM 73.4 °F - 27.1 °F 18% 29.90 in 10.0 mi West 13.8 mph 25.3 mph N/A   Clear
4:35 PM 72.9 °F - 27.0 °F 18% 29.90 in 10.0 mi West 19.6 mph 26.5 mph N/A   Clear
4:55 PM 72.9 °F - 26.6 °F 18% 29.90 in 10.0 mi West 18.4 mph 23.0 mph N/A   Clear
5:15 PM 72.0 °F - 26.6 °F 18% 29.90 in 10.0 mi West 15.0 mph 20.7 mph N/A   Clear
5:35 PM 71.2 °F - 27.0 °F 19% 29.90 in 10.0 mi West 12.7 mph 17.3 mph N/A   Clear
5:55 PM 70.2 °F - 27.3 °F 20% 29.91 in 10.0 mi West 11.5 mph - N/A   Clear
6:15 PM 67.6 °F - 27.5 °F 22% 29.91 in 10.0 mi WNW 6.9 mph - N/A   Clear
6:35 PM 65.1 °F - 27.5 °F 24% 29.91 in 10.0 mi WNW 5.8 mph - N/A   Clear
6:55 PM 62.2 °F - 27.1 °F 26% 29.91 in 10.0 mi WNW 4.6 mph - N/A   Clear
7:15 PM 60.3 °F - 26.6 °F 28% 29.92 in 10.0 mi West 4.6 mph - N/A   Clear
7:35 PM 59.7 °F - 26.6 °F 28% 29.93 in 10.0 mi Calm Calm - N/A   Clear
7:55 PM 59.0 °F - 27.3 °F 30% 29.94 in 10.0 mi Calm Calm - N/A   Clear
8:15 PM 54.7 °F - 23.9 °F 30% 29.94 in 10.0 mi Calm Calm - N/A   Clear
8:35 PM 53.8 °F - 24.1 °F 32% 29.95 in 10.0 mi Calm Calm - N/A   Clear
8:55 PM 53.1 °F - 24.1 °F 32% 29.95 in 10.0 mi Calm Calm - N/A   Clear
9:15 PM 54.3 °F - 25.0 °F 32% 29.97 in 10.0 mi SW 4.6 mph - N/A   Clear
9:35 PM 55.2 °F - 25.5 °F 32% 29.98 in 10.0 mi West 6.9 mph - N/A   Clear
9:55 PM 54.9 °F - 25.5 °F 32% 29.98 in 10.0 mi WSW 5.8 mph - N/A   Clear
10:15 PM 55.8 °F - 26.1 °F 32% 29.99 in 10.0 mi WSW 9.2 mph - N/A   Clear
10:35 PM 57.2 °F - 26.4 °F 31% 29.99 in 10.0 mi WSW 10.4 mph - N/A   Clear
10:55 PM 55.0 °F - 25.3 °F 32% 29.99 in 10.0 mi WSW 9.2 mph - N/A   Clear
11:15 PM 53.6 °F - 25.2 °F 33% 29.99 in 10.0 mi WSW 9.2 mph - N/A   Clear
11:35 PM 52.0 °F - 24.6 °F 35% 29.99 in 10.0 mi WSW 10.4 mph - N/A   Clear
11:55 PM 52.5 °F - 24.6 °F 34% 29.99 in 10.0 mi West 9.2 mph - N/A   Clear